DW0215 Kalamaria GR current weather conditions

sailwx.info

Wind from 274 at 1 knots gusting 2

Air temperature 8.9° C
Dewpoint 3.1° C

Last reported at 2019-Dec-05 16:10 UTC.
Time now 2019-Dec-05 16:50 UTC

Location: N 40°35' E 022°57'.
View on Google Maps.

See reports from other nearby stations

  
Tides and Currents Weather Stations Pressure Air Temp Water Temp Dewpoint Dewpoint Depression Visibility Wind Speed Wind Dir Waves Ship Positions
date/time (UTC)wind fromknots sea level pressurealtimeterstation pressurevisibilityair tempwater tempwave heightnotes
2019-Dec-05 16:10 274 1 gusting 2 8.9
2019-Dec-05 16:05 274 1 gusting 2 8.9
2019-Dec-05 16:00 274 0 gusting 2 8.9
2019-Dec-05 15:55 274 8.9
2019-Dec-05 15:50 273 0 gusting 2 8.9
2019-Dec-05 15:45 273 8.9
2019-Dec-05 15:40 273 8.9
2019-Dec-05 15:35 273 0 gusting 2 9.4
2019-Dec-05 15:30 273 9.4
2019-Dec-05 15:25 273 9.4
2019-Dec-05 15:20 273 9.4
2019-Dec-05 15:15 273 9.4
2019-Dec-05 15:10 273 9.4
2019-Dec-05 15:05 273 1 gusting 2 9.4
2019-Dec-05 15:00 273 9.4
2019-Dec-05 14:55 273 9.4
2019-Dec-05 14:50 273 0 gusting 1 9.4
2019-Dec-05 14:45 273 9.4
2019-Dec-05 12:55 273 1 gusting 2 9.4
2019-Dec-05 12:50 273 9.4
2019-Dec-05 12:45 273 1 gusting 2 9.4
2019-Dec-05 12:40 273 2 gusting 2 9.4
2019-Dec-05 12:35 273 0 gusting 2 9.4
2019-Dec-05 12:30 273 1 gusting 2 9.4
2019-Dec-05 12:25 273 2 gusting 2 9.4
2019-Dec-05 12:20 274 0 gusting 1 9.4
2019-Dec-05 12:15 274 2 gusting 4 9.4
2019-Dec-05 12:10 276 1 gusting 1 9.4
2019-Dec-05 12:05 276 0 gusting 2 9.4
2019-Dec-05 12:00 276 9.4
2019-Dec-05 11:55 277 1 gusting 2 9.4
2019-Dec-05 11:50 277 1 gusting 2 9.4
2019-Dec-05 11:45 277 9.4
2019-Dec-05 11:40 277 1 gusting 2 9.4
2019-Dec-05 11:35 277 9.4
2019-Dec-05 11:30 277 1 gusting 2 9.4
2019-Dec-05 11:25 279 1 gusting 2 9.4
2019-Dec-05 11:20 286 0 gusting 4 9.4
2019-Dec-05 11:15 023 1 gusting 1 9.4
2019-Dec-05 11:10 022 1 gusting 2 9.4
2019-Dec-05 11:05 022 9.4
2019-Dec-05 11:00 022 9.4
2019-Dec-05 10:55 023 9.4
2019-Dec-05 10:50 028 1 gusting 2 9.4
2019-Dec-05 10:45 034 1 gusting 2 9.4
2019-Dec-05 10:40 035 9.4
2019-Dec-05 10:35 035 1 gusting 2 9.4
2019-Dec-05 10:30 035 0 gusting 2 9.4
2019-Dec-05 10:25 036 1 gusting 2 9.4
2019-Dec-05 10:20 036 1 gusting 2 9.4
2019-Dec-05 10:15 035 9.4
2019-Dec-05 10:10 036 9.4
2019-Dec-05 10:05 036 0 gusting 0 8.9
2019-Dec-05 10:00 036 0 gusting 2 8.9
2019-Dec-05 09:55 036 0 gusting 2 8.9
2019-Dec-05 09:50 036 1 gusting 1 8.9
2019-Dec-05 09:45 036 8.9
2019-Dec-05 09:40 036 0 gusting 1 8.9
2019-Dec-05 09:35 036 8.9
2019-Dec-05 09:30 036 8.9
2019-Dec-05 09:25 036 8.9
2019-Dec-05 09:20 036 0 gusting 1 8.9
2019-Dec-05 09:15 036 0 gusting 1 8.3
2019-Dec-05 09:10 036 0 gusting 0 8.3
2019-Dec-05 09:05 036 1 gusting 1 8.3
2019-Dec-05 09:00 036 0 gusting 2 8.3
2019-Dec-05 08:55 036 1 gusting 1 8.3
2019-Dec-05 08:50 036 0 gusting 1 8.3
2019-Dec-05 08:45 036 1 gusting 2 7.8
2019-Dec-05 08:40 036 1 gusting 1 7.8
2019-Dec-05 08:35 036 7.8
2019-Dec-05 08:30 036 0 gusting 1 7.8
2019-Dec-05 08:25 036 7.8
2019-Dec-05 08:20 036 0 gusting 2 7.8
2019-Dec-05 08:15 036 1 gusting 2 7.8
2019-Dec-05 08:10 036 1 gusting 1 7.8
2019-Dec-05 08:05 036 7.8
2019-Dec-05 08:00 036 1 gusting 2 7.8
2019-Dec-05 07:55 034 0 gusting 2 7.2
2019-Dec-05 07:50 034 1 gusting 2 7.2
2019-Dec-05 07:45 034 0 gusting 1 7.2
2019-Dec-05 07:40 034 2 gusting 2 7.2
2019-Dec-05 07:35 033 1 gusting 2 7.2
2019-Dec-05 07:30 033 1 gusting 2 7.2
2019-Dec-05 07:25 033 0 gusting 2 7.2
2019-Dec-05 07:20 033 1 gusting 1 7.2
2019-Dec-05 07:15 033 1 gusting 2 7.2
2019-Dec-05 07:10 032 0 gusting 2 7.2
2019-Dec-05 07:05 030 0 gusting 2 7.2
2019-Dec-05 07:00 030 0 gusting 2 7.2
2019-Dec-05 06:55 030 0 gusting 1 7.2
2019-Dec-05 06:50 030 0 gusting 1 7.2
2019-Dec-05 06:45 030 7.8
2019-Dec-05 06:40 030 7.8
2019-Dec-05 06:35 030 7.2
2019-Dec-05 06:30 030 7.2
2019-Dec-05 06:25 030 1 gusting 2 7.2
2019-Dec-05 06:20 030 7.2
2019-Dec-05 06:15 030 7.2
2019-Dec-05 06:10 030 7.2
2019-Dec-05 06:05 030 7.2
2019-Dec-05 06:00 030 7.2
2019-Dec-05 05:55 030 1 gusting 2 7.2
2019-Dec-05 05:50 030 7.2
2019-Dec-05 05:45 030 1 gusting 2 7.2
2019-Dec-05 05:40 030 0 gusting 2 7.2
2019-Dec-05 05:35 030 0 gusting 2 7.2
2019-Dec-05 05:30 030 7.2
2019-Dec-05 05:25 030 0 gusting 2 7.2
2019-Dec-05 05:20 030 0 gusting 2 7.2
2019-Dec-05 05:15 030 0 gusting 1 7.2
2019-Dec-05 05:10 030 7.2
2019-Dec-05 05:05 030 7.2
2019-Dec-05 05:00 030 7.2
2019-Dec-05 04:55 030 7.2
2019-Dec-05 04:50 030 7.2
2019-Dec-05 04:45 030 7.2
2019-Dec-05 04:40 030 0 gusting 1 7.2
2019-Dec-05 04:35 030 1 gusting 2 7.2
2019-Dec-05 04:30 030 7.2
2019-Dec-05 04:25 030 7.2
2019-Dec-05 04:20 028 0 gusting 2 7.2
2019-Dec-05 04:15 028 0 gusting 1 7.2
2019-Dec-05 04:10 028 0 gusting 2 7.2
2019-Dec-05 04:05 028 7.2
2019-Dec-05 04:00 028 7.2
2019-Dec-05 03:55 028 0 gusting 1 7.2
2019-Dec-05 03:50 028 7.2
2019-Dec-05 03:45 028 7.2
2019-Dec-05 03:40 028 0 gusting 2 7.2
2019-Dec-05 03:35 028 7.2
2019-Dec-05 03:30 028 7.2
2019-Dec-05 03:25 028 0 gusting 1 7.2
2019-Dec-05 03:20 028 0 gusting 2 7.2
2019-Dec-05 03:15 028 1 gusting 2 7.2
2019-Dec-05 03:05 028 7.2
2019-Dec-05 03:00 028 7.2
2019-Dec-05 02:55 028 1 gusting 2 7.2
2019-Dec-05 02:50 028 1 gusting 4 7.2
2019-Dec-05 02:45 028 1 gusting 2 7.2
2019-Dec-05 02:40 026 1 gusting 2 7.2
2019-Dec-05 02:35 026 7.2
2019-Dec-05 02:30 026 0 gusting 2 7.2
2019-Dec-05 02:25 026 0 gusting 2 7.2
2019-Dec-05 02:20 024 1 gusting 2 7.2
2019-Dec-05 02:15 024 0 gusting 2 7.2
2019-Dec-05 02:10 317 7.2
2019-Dec-05 02:05 317 0 gusting 2 7.8
2019-Dec-05 02:00 317 0 gusting 2 7.8
2019-Dec-05 01:55 317 0 gusting 2 7.8
2019-Dec-05 01:50 317 0 gusting 1 7.8
2019-Dec-05 01:45 317 1 gusting 2 7.8
2019-Dec-05 01:40 317 0 gusting 2 7.8
2019-Dec-05 01:35 317 0 gusting 2 7.8
2019-Dec-05 01:30 317 0 gusting 2 7.8
2019-Dec-05 01:25 317 0 gusting 2 7.8
2019-Dec-05 01:20 317 0 gusting 2 7.8
2019-Dec-05 01:15 313 1 gusting 2 7.8
2019-Dec-05 01:10 309 7.8
2019-Dec-05 01:05 309 0 gusting 1 7.8
2019-Dec-05 01:00 309 7.8
2019-Dec-05 00:55 309 7.8
2019-Dec-05 00:50 309 7.8
2019-Dec-05 00:45 309 7.8
2019-Dec-05 00:40 309 7.8
2019-Dec-05 00:35 309 7.8
2019-Dec-05 00:30 309 7.2
2019-Dec-05 00:15 309 7.2
2019-Dec-05 00:10 309 0 gusting 1 7.2
2019-Dec-05 00:05 309 7.2
2019-Dec-05 00:00 309 0 gusting 2 7.2
2019-Dec-04 23:55 309 1 gusting 2 7.2
2019-Dec-04 23:50 309 1 gusting 2 6.7
2019-Dec-04 23:45 309 1 gusting 2 6.7
2019-Dec-04 23:40 309 1 gusting 2 7.2
2019-Dec-04 23:35 309 1 gusting 2 7.2
2019-Dec-04 23:30 309 1 gusting 2 7.2
2019-Dec-04 23:25 309 1 gusting 2 7.2
2019-Dec-04 23:20 309 0 gusting 2 7.2
2019-Dec-04 23:15 309 1 gusting 4 7.8
2019-Dec-04 23:10 309 0 gusting 2 7.8
2019-Dec-04 23:05 309 1 gusting 2 7.8
2019-Dec-04 23:00 309 7.8
2019-Dec-04 22:55 309 7.8
2019-Dec-04 22:50 309 7.8
2019-Dec-04 22:45 309 0 gusting 2 7.8
2019-Dec-04 22:40 309 7.2
2019-Dec-04 22:35 309 0 gusting 1 7.2
2019-Dec-04 22:30 309 7.2
2019-Dec-04 22:25 309 0 gusting 1 7.2
2019-Dec-04 22:20 309 7.8
2019-Dec-04 22:15 309 7.8
2019-Dec-04 22:10 309 0 gusting 2 7.8
2019-Dec-04 22:05 309 0 gusting 2 7.8
2019-Dec-04 22:00 309 0 gusting 2 7.8
2019-Dec-04 21:55 309 7.2
2019-Dec-04 21:50 309 7.2
2019-Dec-04 21:45 309 7.8
2019-Dec-04 21:40 309 7.8
2019-Dec-04 21:35 309 7.8
2019-Dec-04 21:30 309 7.8
2019-Dec-04 21:25 309 0 gusting 1 7.8
2019-Dec-04 21:20 309 7.8
2019-Dec-04 21:15 309 7.8
2019-Dec-04 21:10 309 7.8
2019-Dec-04 21:05 309 7.8
2019-Dec-04 21:00 309 7.8
2019-Dec-04 20:55 309 7.8
2019-Dec-04 20:50 309 7.8
2019-Dec-04 20:45 309 0 gusting 2 7.8
2019-Dec-04 20:40 309 7.8
2019-Dec-04 20:35 309 7.8
2019-Dec-04 20:30 309 7.8
2019-Dec-04 20:25 309 7.8
2019-Dec-04 20:20 309 7.8
2019-Dec-04 20:15 309 7.8
2019-Dec-04 20:10 309 7.8
2019-Dec-04 20:05 309 7.8
2019-Dec-04 20:00 309 7.2
2019-Dec-04 19:55 309 7.2
2019-Dec-04 19:50 309 7.2
2019-Dec-04 19:45 309 7.2
2019-Dec-04 19:40 309 7.2
2019-Dec-04 19:35 309 0 gusting 1 7.2
2019-Dec-04 19:30 309 7.2
2019-Dec-04 19:25 309 7.8
2019-Dec-04 19:20 309 0 gusting 2 7.8
2019-Dec-04 19:15 309 0 gusting 2 7.8
2019-Dec-04 19:10 309 7.8
2019-Dec-04 19:05 309 7.8
2019-Dec-04 19:00 309 0 gusting 2 7.8
2019-Dec-04 18:55 309 7.2
2019-Dec-04 18:50 309 7.2
2019-Dec-04 18:45 309 0 gusting 1 7.2
2019-Dec-04 18:40 309 0 gusting 1 7.2
2019-Dec-04 18:35 309 0 gusting 2 7.2
2019-Dec-04 18:30 309 0 gusting 1 7.2
2019-Dec-04 18:25 309 7.2
2019-Dec-04 18:20 309 7.2
2019-Dec-04 18:15 309 7.2
2019-Dec-04 18:10 309 7.2
2019-Dec-04 18:05 309 7.2
2019-Dec-04 18:00 309 7.2
2019-Dec-04 17:55 309 7.2
2019-Dec-04 17:50 309 7.2
2019-Dec-04 17:45 309 7.2
2019-Dec-04 17:40 309 7.2
2019-Dec-04 17:35 309 7.2
2019-Dec-04 17:30 309 7.2
2019-Dec-04 17:25 309 0 gusting 1 7.2
2019-Dec-04 17:20 309 7.2
2019-Dec-04 17:15 309 1 gusting 2 7.2
2019-Dec-04 17:10 309 0 gusting 2 7.2
2019-Dec-04 17:05 309 7.2
2019-Dec-04 17:00 309 7.2
2019-Dec-04 16:55 309 0 gusting 2 7.2
2019-Dec-04 16:50 309 0 gusting 2 7.2
2019-Dec-04 16:45 309 1 gusting 2 7.2
2019-Dec-04 16:40 309 6.7
2019-Dec-04 16:35 309 1 gusting 2 6.7
2019-Dec-04 16:30 309 0 gusting 2 6.7
2019-Dec-04 16:25 309 0 gusting 4 6.7
2019-Dec-04 16:20 309 1 gusting 2 6.7
2019-Dec-04 16:15 309 6.7
2019-Dec-04 16:10 309 0 gusting 4 6.7
2019-Dec-04 16:05 309 2 gusting 4 6.7
2019-Dec-04 16:00 309 2 gusting 2 6.7
2019-Dec-04 15:55 309 0 gusting 2 6.7
2019-Dec-04 15:50 309 2 gusting 4 6.7
2019-Dec-04 15:45 309 2 gusting 4 6.7
2019-Dec-04 15:40 309 1 gusting 4 6.7
2019-Dec-04 15:35 309 0 gusting 2 6.7
2019-Dec-04 15:30 309 2 gusting 4 6.7
2019-Dec-04 15:25 306 2 gusting 5 6.7
2019-Dec-04 15:20 310 1 gusting 4 6.7
2019-Dec-04 15:15 310 2 gusting 5 6.7
2019-Dec-04 15:10 315 2 gusting 5 6.7
2019-Dec-04 15:05 314 0 gusting 4 6.7
2019-Dec-04 15:00 314 1 gusting 5 6.7
2019-Dec-04 14:55 304 1 gusting 4 6.7
2019-Dec-04 14:50 304 2 gusting 5 6.7
2019-Dec-04 14:45 302 2 gusting 5 6.7
2019-Dec-04 14:40 300 1 gusting 2 6.7
2019-Dec-04 14:35 300 1 gusting 5 6.7
2019-Dec-04 14:30 312 1 gusting 4 6.7
2019-Dec-04 14:25 313 2 gusting 6 6.7
2019-Dec-04 14:20 302 3 gusting 6 6.7
2019-Dec-04 14:15 300 1 gusting 5 6.7
2019-Dec-04 14:10 311 1 gusting 4 6.7
2019-Dec-04 14:05 313 0 gusting 2 6.7
2019-Dec-04 14:00 313 2 gusting 2 6.7
2019-Dec-04 13:55 348 1 gusting 6 6.7
2019-Dec-04 13:50 347 2 gusting 6 6.7
2019-Dec-04 13:45 351 1 gusting 4 6.7
2019-Dec-04 13:40 353 4 gusting 7 6.7
2019-Dec-04 13:35 355 4 gusting 6 7.2
2019-Dec-04 13:30 349 3 gusting 6 7.2
2019-Dec-04 13:25 299 1 gusting 2 7.2
2019-Dec-04 13:20 299 1 gusting 5 6.7
2019-Dec-04 13:15 297 1 gusting 2 6.7
2019-Dec-04 13:10 327 1 gusting 5 6.7
2019-Dec-04 13:05 347 1 gusting 5 6.7
2019-Dec-04 13:00 344 1 gusting 6 6.7
2019-Dec-04 12:55 325 2 gusting 4 6.7
2019-Dec-04 12:50 331 1 gusting 4 6.7
2019-Dec-04 12:45 6.7
2019-Dec-04 12:40 346 4 gusting 6 6.7
2019-Dec-04 12:35 6.7
2019-Dec-04 12:30 024 2 gusting 2 6.7
2019-Dec-04 12:25 028 1 gusting 2 6.7
2019-Dec-04 12:20 350 5 gusting 6 6.7
2019-Dec-04 12:15 342 2 gusting 6 6.1
2019-Dec-04 12:10 336 1 gusting 4 6.1
2019-Dec-04 12:05 331 0 gusting 4 6.1
2019-Dec-04 12:00 329 2 gusting 4 6.1
2019-Dec-04 11:55 307 1 gusting 5 6.1
2019-Dec-04 11:50 304 4 gusting 5 6.1
2019-Dec-04 11:45 313 3 gusting 4 6.1
2019-Dec-04 11:40 309 2 gusting 4 6.1
2019-Dec-04 11:35 313 4 gusting 5 5.6
2019-Dec-04 11:30 5.6
2019-Dec-04 11:25 354 1 gusting 5 5.6
2019-Dec-04 11:20 325 2 gusting 5 5.6
2019-Dec-04 11:15 325 3 gusting 5 5.6
2019-Dec-04 11:10 328 3 gusting 5 5.6
2019-Dec-04 11:05 329 1 gusting 6 5.6
2019-Dec-04 11:00 335 4 gusting 6 5.6
2019-Dec-04 10:55 017 4 gusting 7 5.6
2019-Dec-04 10:50 318 4 gusting 8 5.6
2019-Dec-04 10:45 011 4 gusting 8 5.6
2019-Dec-04 10:40 324 4 gusting 5 5.6
2019-Dec-04 10:35 354 4 gusting 6 5.0
2019-Dec-04 10:30 355 3 gusting 4 5.0
2019-Dec-04 10:25 349 3 gusting 7 5.0
2019-Dec-04 10:20 324 2 gusting 6 5.0
2019-Dec-04 10:15 326 6 gusting 10 5.0
2019-Dec-04 10:10 338 1 gusting 4 5.0
2019-Dec-04 10:05 333 5 gusting 8 5.0
2019-Dec-04 10:00 294 4 gusting 6 5.0
2019-Dec-04 09:55 348 4 gusting 10 5.0
2019-Dec-04 09:50 014 5 gusting 7 4.4
2019-Dec-04 09:45 027 4 gusting 5 4.4
2019-Dec-04 09:40 355 5 gusting 10 4.4
2019-Dec-04 09:35 4.4
2019-Dec-04 09:30 4.4
2019-Dec-04 09:25 015 6 gusting 10 4.4
2019-Dec-04 09:20 4.4
2019-Dec-04 09:15 350 3 gusting 8 4.4
2019-Dec-04 09:10 311 5 gusting 7 4.4
2019-Dec-04 09:05 355 3 gusting 10 4.4
2019-Dec-04 09:00 040 4 gusting 10 4.4
2019-Dec-04 08:55 306 4 gusting 6 4.4
2019-Dec-04 08:50 352 4 gusting 10 4.4
2019-Dec-04 08:45 002 3 gusting 10 4.4
2019-Dec-04 08:40 294 6 gusting 10 4.4
2019-Dec-04 08:35 337 7 gusting 12 4.4
2019-Dec-04 08:30 356 6 gusting 15 4.4
2019-Dec-04 08:25 003 6 gusting 12 4.4
2019-Dec-04 08:20 005 5 gusting 13 4.4
2019-Dec-04 08:15 338 4 gusting 8 4.4
2019-Dec-04 08:10 3.9
2019-Dec-04 08:05 014 8 gusting 13 3.9
2019-Dec-04 08:00 023 6 gusting 10 3.9
2019-Dec-04 07:55 016 5 gusting 13 3.9
2019-Dec-04 07:50 355 2 gusting 6 3.9
2019-Dec-04 07:45 011 5 gusting 6 3.9
2019-Dec-04 07:40 324 1 gusting 5 3.9
2019-Dec-04 07:35 347 3 gusting 10 3.9
2019-Dec-04 07:30 312 4 gusting 5 3.9
2019-Dec-04 07:25 318 2 gusting 4 3.9
2019-Dec-04 07:20 343 4 gusting 6 3.9
2019-Dec-04 07:15 346 4 gusting 10 3.9
2019-Dec-04 07:10 359 6 gusting 10 3.9
2019-Dec-04 07:05 343 6 gusting 10 3.9
2019-Dec-04 07:00 354 5 gusting 8 3.9
2019-Dec-04 06:55 354 4 gusting 8 3.9
2019-Dec-04 06:50 015 3 gusting 8 3.9
2019-Dec-04 06:45 010 3 gusting 7 3.3
2019-Dec-04 06:40 339 4 gusting 8 3.3
2019-Dec-04 06:35 004 2 gusting 11 3.3
2019-Dec-04 06:30 357 3 gusting 7 3.3
2019-Dec-04 06:25 3.3
2019-Dec-04 06:20 018 3 gusting 7 3.3
2019-Dec-04 06:15 338 2 gusting 6 3.3
2019-Dec-04 06:10 332 3 gusting 6 3.3
2019-Dec-04 06:05 338 2 gusting 6 3.3
2019-Dec-04 06:00 333 5 gusting 8 3.3
2019-Dec-04 05:55 324 4 gusting 8 3.3
2019-Dec-04 05:50 313 3 gusting 7 3.3
2019-Dec-04 05:45 315 3 gusting 6 3.3
2019-Dec-04 05:40 321 4 gusting 7 3.3
2019-Dec-04 05:35 348 5 gusting 8 3.3
2019-Dec-04 05:30 315 3 gusting 7 3.3
2019-Dec-04 05:25 314 4 gusting 6 3.3
2019-Dec-04 05:20 296 4 gusting 6 3.3
2019-Dec-04 05:15 359 4 gusting 7 3.3
2019-Dec-04 05:10 338 3 gusting 7 3.3
2019-Dec-04 05:05 300 4 gusting 7 3.3
2019-Dec-04 05:00 015 4 gusting 7 3.3
2019-Dec-04 04:55 311 3 gusting 6 3.3
2019-Dec-04 04:50 013 4 gusting 6 3.3
2019-Dec-04 04:45 334 3 gusting 7 3.3
2019-Dec-04 04:40 322 4 gusting 10 3.3
2019-Dec-04 04:35 312 4 gusting 7 3.3
2019-Dec-04 04:30 323 5 gusting 10 3.3
2019-Dec-04 04:25 313 6 gusting 10 3.3
2019-Dec-04 04:20 308 5 gusting 10 3.3
2019-Dec-04 04:15 342 5 gusting 10 3.3
2019-Dec-04 04:10 337 3 gusting 8 3.3
2019-Dec-04 04:05 271 4 gusting 13 3.3
2019-Dec-04 04:00 323 6 gusting 10 3.3
2019-Dec-04 03:55 342 5 gusting 10 3.9
2019-Dec-04 03:50 009 4 gusting 10 3.9
2019-Dec-04 03:45 356 4 gusting 10 3.9
2019-Dec-04 03:40 311 5 gusting 10 3.9
2019-Dec-04 03:35 319 6 gusting 12 3.9
2019-Dec-04 03:30 309 5 gusting 8 3.9
2019-Dec-04 03:25 353 5 gusting 8 3.9
2019-Dec-04 03:20 321 5 gusting 7 3.9
2019-Dec-04 03:15 313 4 gusting 6 3.9
2019-Dec-04 03:10 288 3 gusting 6 3.9
2019-Dec-04 03:05 288 4 gusting 6 3.9
2019-Dec-04 03:00 318 4 gusting 7 4.4
2019-Dec-04 02:55 316 4 gusting 7 4.4
2019-Dec-04 02:50 323 4 gusting 11 4.4
2019-Dec-04 02:45 327 5 gusting 10 4.4
2019-Dec-04 02:40 325 4 gusting 7 4.4
2019-Dec-04 02:35 311 4 gusting 7 4.4
2019-Dec-04 02:30 309 2 gusting 6 4.4
2019-Dec-04 02:25 311 1 gusting 6 4.4
2019-Dec-04 02:20 317 3 gusting 7 4.4
2019-Dec-04 02:15 298 2 gusting 6 4.4
2019-Dec-04 02:10 324 4 gusting 8 4.4
2019-Dec-04 02:05 319 4 gusting 8 4.4
2019-Dec-04 02:00 302 4 gusting 6 4.4
2019-Dec-04 01:55 334 4 gusting 10 4.4
2019-Dec-04 01:50 325 5 gusting 8 4.4
2019-Dec-04 01:45 322 5 gusting 8 4.4
2019-Dec-04 01:40 320 4 gusting 12 4.4
2019-Dec-04 01:35 316 5 gusting 10 4.4
2019-Dec-04 01:30 319 4 gusting 11 4.4
2019-Dec-04 01:25 306 5 gusting 7 4.4
2019-Dec-04 01:20 330 6 gusting 10 4.4
2019-Dec-04 01:15 319 3 gusting 10 4.4
2019-Dec-04 01:10 328 4 gusting 10 4.4
2019-Dec-04 01:05 322 5 gusting 11 4.4
2019-Dec-04 01:00 318 5 gusting 10 4.4
2019-Dec-04 00:55 329 6 gusting 10 5.0
2019-Dec-04 00:50 337 5 gusting 8 5.0
2019-Dec-04 00:45 318 6 gusting 12 5.0
2019-Dec-04 00:40 302 4 gusting 8 5.0
2019-Dec-04 00:35 354 2 gusting 8 5.0
2019-Dec-04 00:30 327 4 gusting 11 5.0
2019-Dec-04 00:25 347 4 gusting 7 5.0
2019-Dec-04 00:20 316 4 gusting 10 5.0
2019-Dec-04 00:15 5.0
2019-Dec-04 00:10 319 4 gusting 10 5.0
2019-Dec-04 00:05 318 2 gusting 10 5.0
2019-Dec-04 00:00 329 3 gusting 7 5.0
2019-Dec-03 23:55 334 2 gusting 10 5.0
2019-Dec-03 23:50 320 5 gusting 13 5.0
2019-Dec-03 23:45 320 5 gusting 13 5.0
2019-Dec-03 23:40 318 4 gusting 8 5.6
2019-Dec-03 23:35 313 4 gusting 8 5.6
2019-Dec-03 23:30 323 4 gusting 10 5.6
2019-Dec-03 23:25 305 5 gusting 11 5.6
2019-Dec-03 23:20 313 4 gusting 8 5.6
2019-Dec-03 23:15 323 5 gusting 10 5.6
2019-Dec-03 23:10 319 5 gusting 10 5.6
2019-Dec-03 23:05 315 4 gusting 6 5.6
2019-Dec-03 23:00 308 4 gusting 10 5.6
2019-Dec-03 22:55 306 4 gusting 6 5.6
2019-Dec-03 22:50 347 4 gusting 8 5.6
2019-Dec-03 22:45 316 5 gusting 10 5.6
2019-Dec-03 22:40 321 4 gusting 10 5.6
2019-Dec-03 22:35 320 5 gusting 10 6.1
2019-Dec-03 22:30 326 4 gusting 10 6.1
2019-Dec-03 22:25 321 6 gusting 10 6.1
2019-Dec-03 22:20 297 3 gusting 6 5.6
2019-Dec-03 22:15 324 4 gusting 7 5.6
2019-Dec-03 22:10 308 3 gusting 6 5.6
2019-Dec-03 22:05 319 6 gusting 10 5.6
2019-Dec-03 22:00 307 6 gusting 12 5.6
2019-Dec-03 21:55 312 4 gusting 10 5.6
2019-Dec-03 21:50 352 5 gusting 10 5.6
2019-Dec-03 21:45 331 4 gusting 10 6.1
2019-Dec-03 21:40 325 4 gusting 10 6.1
2019-Dec-03 21:35 320 6 gusting 11 6.1
2019-Dec-03 21:30 318 6 gusting 13 6.1
2019-Dec-03 21:25 280 6 gusting 8 6.1
2019-Dec-03 21:20 322 5 gusting 11 6.1
2019-Dec-03 21:15 317 4 gusting 10 6.1
2019-Dec-03 21:10 326 4 gusting 10 6.1
2019-Dec-03 21:05 334 6 gusting 12 6.1
2019-Dec-03 21:00 298 4 gusting 8 6.1
2019-Dec-03 20:55 302 3 gusting 8 6.1
2019-Dec-03 20:50 314 4 gusting 7 6.1
2019-Dec-03 20:45 296 4 gusting 7 6.1
2019-Dec-03 20:40 005 5 gusting 12 6.7
2019-Dec-03 20:35 308 6 gusting 10 6.7
2019-Dec-03 20:30 312 4 gusting 10 6.7
2019-Dec-03 20:25 323 6 gusting 11 6.7
2019-Dec-03 20:20 322 5 gusting 10 7.2
2019-Dec-03 20:15 323 6 gusting 11 7.2
2019-Dec-03 20:10 321 4 gusting 10 7.2
2019-Dec-03 20:05 312 4 gusting 7 7.2
2019-Dec-03 20:00 283 3 gusting 10 7.8
2019-Dec-03 19:55 308 6 gusting 10 7.8
2019-Dec-03 19:50 322 5 gusting 10 7.8
2019-Dec-03 19:45 317 4 gusting 10 7.8
2019-Dec-03 19:40 325 4 gusting 7 7.8
2019-Dec-03 19:35 316 6 gusting 11 8.3
2019-Dec-03 19:30 325 5 gusting 11 8.3
2019-Dec-03 19:25 315 5 gusting 10 8.3
2019-Dec-03 19:20 321 6 gusting 10 8.9
2019-Dec-03 19:15 322 5 gusting 10 8.9
2019-Dec-03 19:10 313 4 gusting 8 8.9
2019-Dec-03 19:05 317 4 gusting 7 8.9
2019-Dec-03 19:00 315 5 gusting 8 8.9
2019-Dec-03 18:55 321 6 gusting 10 8.9
2019-Dec-03 18:50 312 4 gusting 8 8.9
2019-Dec-03 18:45 317 4 gusting 6 8.9
2019-Dec-03 18:40 316 3 gusting 6 8.9
2019-Dec-03 18:35 319 2 gusting 6 8.9
2019-Dec-03 18:30 319 3 gusting 6 8.9
2019-Dec-03 18:25 320 2 gusting 5 9.4
2019-Dec-03 18:20 319 4 gusting 6 8.9
2019-Dec-03 18:15 323 3 gusting 7 8.9
2019-Dec-03 18:10 330 2 gusting 8 8.9
2019-Dec-03 18:05 311 4 gusting 6 8.9
2019-Dec-03 18:00 319 1 gusting 6 9.4
2019-Dec-03 17:55 318 2 gusting 10 9.4
2019-Dec-03 17:50 309 4 gusting 8 9.4
2019-Dec-03 17:45 319 5 gusting 8 9.4
2019-Dec-03 17:40 309 5 gusting 8 9.4
2019-Dec-03 17:35 317 4 gusting 7 9.4
2019-Dec-03 17:30 287 5 gusting 7 9.4
2019-Dec-03 17:25 304 4 gusting 6 9.4
2019-Dec-03 17:20 313 2 gusting 6 9.4
2019-Dec-03 17:15 314 1 gusting 5 9.4
2019-Dec-03 17:10 313 2 gusting 7 9.4
2019-Dec-03 17:05 311 2 gusting 6 9.4
2019-Dec-03 17:00 317 4 gusting 8 9.4
2019-Dec-03 16:55 313 2 gusting 7 9.4
2019-Dec-03 16:50 329 2 gusting 10 9.4
2019-Dec-03 16:45 324 4 gusting 10 9.4
2019-Dec-03 16:40 315 4 gusting 10 9.4
2019-Dec-03 16:35 318 4 gusting 6 9.4
2019-Dec-03 16:30 320 4 gusting 8 9.4
2019-Dec-03 16:25 328 5 gusting 11 9.4
2019-Dec-03 16:20 314 6 gusting 11 9.4
2019-Dec-03 16:15 323 6 gusting 11 9.4
2019-Dec-03 16:10 322 5 gusting 7 10.0
2019-Dec-03 16:05 315 2 gusting 6 10.0
2019-Dec-03 16:00 286 2 gusting 6 10.0